TimeEST,TemperatureF,Dew PointF,Humidity,Sea Level PressureIn,VisibilityMPH,Wind Direction,Wind SpeedMPH,Gust SpeedMPH,PrecipitationIn,Events,Conditions,WindDirDegrees,DateUTC
12:56 AM,43.0,38.8,85,29.74,6.0,NW,6.9,-,N/A,,Partly Cloudy,310,2012-12-17 05:56:00
1:56 AM,41.9,39.9,93,29.73,5.0,Calm,Calm,-,N/A,,Clear,0,2012-12-17 06:56:00
2:10 AM,39.2,39.2,100,29.74,2.0,SSE,3.5,-,N/A,,Clear,160,2012-12-17 07:10:00
2:20 AM,39.2,39.2,100,29.74,4.0,South,3.5,-,N/A,,Partly Cloudy,190,2012-12-17 07:20:00
2:28 AM,39.2,37.4,93,29.74,2.5,South,3.5,-,N/A,,Mostly Cloudy,180,2012-12-17 07:28:00
2:41 AM,39.2,37.4,93,29.75,3.0,Calm,Calm,-,N/A,,Mostly Cloudy,0,2012-12-17 07:41:00
2:49 AM,39.2,37.4,93,29.75,1.8,Calm,Calm,-,N/A,,Mostly Cloudy,0,2012-12-17 07:49:00
2:56 AM,39.9,37.9,93,29.76,1.0,Calm,Calm,-,N/A,,Mostly Cloudy,0,2012-12-17 07:56:00
3:02 AM,39.2,37.4,93,29.75,0.8,Calm,Calm,-,N/A,,Mostly Cloudy,0,2012-12-17 08:02:00
3:10 AM,39.2,39.2,100,29.75,1.2,West,3.5,-,N/A,,Overcast,280,2012-12-17 08:10:00
3:16 AM,39.2,39.2,100,29.75,2.0,WNW,3.5,-,N/A,,Overcast,300,2012-12-17 08:16:00
3:31 AM,39.2,37.4,93,29.75,1.2,Calm,Calm,-,N/A,,Mostly Cloudy,0,2012-12-17 08:31:00
3:33 AM,39.2,37.4,93,29.75,0.8,Calm,Calm,-,N/A,,Mostly Cloudy,0,2012-12-17 08:33:00
3:37 AM,37.4,37.4,100,29.75,0.2,Calm,Calm,-,N/A,Fog,Fog,0,2012-12-17 08:37:00
3:41 AM,37.4,37.4,100,29.74,0.2,Calm,Calm,-,N/A,Fog,Fog,0,2012-12-17 08:41:00
3:56 AM,36.9,36.0,97,29.75,0.2,Calm,Calm,-,N/A,Fog,Fog,0,2012-12-17 08:56:00
4:15 AM,37.4,35.6,93,29.74,0.2,Calm,Calm,-,N/A,Fog,Fog,0,2012-12-17 09:15:00
4:42 AM,37.4,35.6,93,29.75,0.2,Calm,Calm,-,N/A,Fog,Fog,0,2012-12-17 09:42:00
4:56 AM,36.9,36.0,97,29.75,0.2,North,4.6,-,N/A,Fog,Fog,350,2012-12-17 09:56:00
5:07 AM,37.4,37.4,100,29.74,0.2,North,6.9,-,N/A,Fog,Fog,360,2012-12-17 10:07:00
5:10 AM,37.4,37.4,100,29.74,0.5,North,6.9,-,N/A,Fog,Fog,360,2012-12-17 10:10:00
5:14 AM,39.2,37.4,93,29.74,1.0,North,5.8,-,N/A,,Mostly Cloudy,360,2012-12-17 10:14:00
5:16 AM,39.2,37.4,93,29.74,1.5,North,5.8,-,N/A,,Mostly Cloudy,360,2012-12-17 10:16:00
5:32 AM,39.2,39.2,100,29.74,1.0,North,6.9,-,N/A,,Overcast,360,2012-12-17 10:32:00
5:43 AM,39.2,39.2,100,29.73,0.8,North,5.8,-,N/A,,Overcast,360,2012-12-17 10:43:00
5:56 AM,39.9,38.8,96,29.75,0.8,North,3.5,-,N/A,,Overcast,360,2012-12-17 10:56:00
6:10 AM,39.2,39.2,100,29.73,0.5,NE,3.5,-,N/A,Fog,Fog,50,2012-12-17 11:10:00
6:28 AM,39.2,39.2,100,29.74,0.2,NNE,3.5,-,N/A,Fog,Fog,30,2012-12-17 11:28:00
6:56 AM,39.9,38.8,96,29.76,0.2,North,3.5,-,N/A,Fog,Fog,360,2012-12-17 11:56:00
7:33 AM,39.2,39.2,100,29.75,0.5,North,3.5,-,N/A,Fog,Fog,10,2012-12-17 12:33:00
7:42 AM,39.2,39.2,100,29.76,1.0,North,3.5,-,N/A,,Overcast,10,2012-12-17 12:42:00
7:46 AM,39.2,39.2,100,29.76,1.5,North,3.5,-,N/A,,Overcast,10,2012-12-17 12:46:00
7:56 AM,39.9,38.8,96,29.77,2.0,North,4.6,-,N/A,,Overcast,360,2012-12-17 12:56:00
8:06 AM,39.2,39.2,100,29.75,1.8,North,4.6,-,N/A,,Overcast,10,2012-12-17 13:06:00
8:09 AM,39.2,39.2,100,29.75,1.0,North,5.8,-,N/A,,Overcast,10,2012-12-17 13:09:00
8:12 AM,39.2,39.2,100,29.74,0.5,North,5.8,-,N/A,Fog,Fog,10,2012-12-17 13:12:00
8:21 AM,39.2,39.2,100,29.74,0.2,North,5.8,-,N/A,Fog,Fog,10,2012-12-17 13:21:00
8:56 AM,39.9,39.9,100,29.73,1.0,NNE,6.9,-,N/A,,Overcast,30,2012-12-17 13:56:00
9:18 AM,41.0,39.2,93,29.71,1.2,East,8.1,-,N/A,,Overcast,80,2012-12-17 14:18:00
9:26 AM,41.0,39.2,93,29.72,1.0,East,8.1,-,N/A,,Overcast,80,2012-12-17 14:26:00
9:44 AM,41.0,39.2,93,29.71,0.8,NE,6.9,-,N/A,,Overcast,50,2012-12-17 14:44:00
9:56 AM,41.0,39.9,96,29.73,0.8,ENE,6.9,-,N/A,,Overcast,60,2012-12-17 14:56:00
10:03 AM,41.0,39.2,93,29.71,1.0,ENE,8.1,-,N/A,,Overcast,60,2012-12-17 15:03:00
10:10 AM,41.0,39.2,93,29.71,1.2,ENE,8.1,-,N/A,,Overcast,60,2012-12-17 15:10:00
10:27 AM,42.8,41.0,93,29.72,1.5,NE,4.6,-,N/A,,Overcast,50,2012-12-17 15:27:00
10:56 AM,41.9,41.0,97,29.73,1.5,East,4.6,-,N/A,,Overcast,90,2012-12-17 15:56:00
11:45 AM,42.8,41.0,93,29.68,2.0,East,6.9,-,N/A,,Overcast,100,2012-12-17 16:45:00
11:56 AM,43.0,41.0,93,29.68,2.0,East,4.6,-,N/A,,Overcast,80,2012-12-17 16:56:00
12:56 PM,45.0,41.9,89,29.65,1.8,NE,5.8,-,0.00,Rain,Light Rain,50,2012-12-17 17:56:00
1:10 PM,44.6,42.8,93,29.63,1.0,NE,5.8,-,0.02,Rain,Heavy Rain,40,2012-12-17 18:10:00
1:37 PM,44.6,42.8,93,29.61,1.2,ENE,6.9,-,0.04,Rain,Light Rain,60,2012-12-17 18:37:00
1:44 PM,44.6,42.8,93,29.60,1.5,ENE,6.9,-,0.04,Rain,Light Rain,60,2012-12-17 18:44:00
1:56 PM,45.0,43.0,93,29.61,1.8,ENE,6.9,-,0.04,,Overcast,60,2012-12-17 18:56:00
2:33 PM,44.6,42.8,93,29.58,1.5,NE,8.1,-,0.00,Rain-Thunderstorm,Light Thunderstorms and Rain,40,2012-12-17 19:33:00
2:46 PM,44.6,42.8,93,29.58,1.2,NNE,6.9,-,0.00,Rain-Thunderstorm,Light Thunderstorms and Rain,30,2012-12-17 19:46:00
2:56 PM,43.9,43.0,97,29.59,1.2,ENE,5.8,-,0.01,Rain-Thunderstorm,Light Thunderstorms and Rain,70,2012-12-17 19:56:00
3:09 PM,44.6,42.8,93,29.59,0.8,NW,3.5,-,0.14,Rain-Thunderstorm,Heavy Thunderstorms and Rain,320,2012-12-17 20:09:00
3:17 PM,44.6,42.8,93,29.58,1.0,ENE,3.5,-,0.17,Rain-Thunderstorm,Thunderstorms and Rain,60,2012-12-17 20:17:00
3:24 PM,44.6,42.8,93,29.58,1.2,ESE,8.1,-,0.19,Rain,Light Rain,120,2012-12-17 20:24:00
3:30 PM,44.6,42.8,93,29.58,1.0,Variable,4.6,-,0.22,Rain,Rain,0,2012-12-17 20:30:00
3:36 PM,44.6,42.8,93,29.58,0.5,NNE,8.1,-,0.24,Fog,Fog,20,2012-12-17 20:36:00
3:43 PM,44.6,42.8,93,29.58,0.8,North,3.5,-,0.25,Rain-Thunderstorm,Light Thunderstorms and Rain,10,2012-12-17 20:43:00
3:46 PM,44.6,42.8,93,29.58,1.0,NNE,5.8,-,0.26,Rain-Thunderstorm,Light Thunderstorms and Rain,20,2012-12-17 20:46:00
3:56 PM,43.9,43.0,97,29.59,0.8,North,5.8,-,0.28,Rain-Thunderstorm,Rain,10,2012-12-17 20:56:00
4:04 PM,44.6,42.8,93,29.57,0.8,NNE,6.9,-,0.01,Rain,Light Rain,20,2012-12-17 21:04:00
4:11 PM,44.6,42.8,93,29.57,0.8,NNE,5.8,-,0.02,Rain,Light Rain,30,2012-12-17 21:11:00
4:18 PM,44.6,42.8,93,29.58,1.2,NNW,5.8,-,0.02,Rain,Light Rain,340,2012-12-17 21:18:00
4:24 PM,44.6,42.8,93,29.58,1.8,NNW,6.9,-,0.03,Rain,Light Rain,340,2012-12-17 21:24:00
4:42 PM,44.6,42.8,93,29.60,1.2,WNW,8.1,-,0.05,Rain,Light Rain,290,2012-12-17 21:42:00
4:48 PM,44.6,42.8,93,29.59,2.0,NNW,6.9,-,0.05,,Overcast,330,2012-12-17 21:48:00
4:56 PM,43.9,41.9,93,29.60,2.0,North,4.6,-,0.05,Rain,Light Rain,350,2012-12-17 21:56:00
7:42 PM,42.8,42.8,100,29.57,2.0,NNE,6.9,-,N/A,,Overcast,30,2012-12-18 00:42:00
7:56 PM,41.9,41.0,97,29.60,2.0,NNE,6.9,-,N/A,,Overcast,30,2012-12-18 00:56:00
8:08 PM,42.8,41.0,93,29.59,1.8,NNE,4.6,-,N/A,,Overcast,20,2012-12-18 01:08:00
8:17 PM,42.8,41.0,93,29.59,2.0,NNE,3.5,-,N/A,,Overcast,20,2012-12-18 01:17:00
8:26 PM,42.8,41.0,93,29.58,1.8,North,5.8,-,N/A,,Overcast,10,2012-12-18 01:26:00
8:56 PM,41.9,39.9,93,29.61,2.0,NNW,3.5,-,N/A,,Overcast,340,2012-12-18 01:56:00
9:16 PM,42.8,39.2,87,29.59,1.8,NNW,5.8,-,N/A,,Overcast,340,2012-12-18 02:16:00
9:41 PM,41.0,39.2,93,29.59,2.0,NNW,8.1,-,N/A,,Overcast,340,2012-12-18 02:41:00
9:45 PM,41.0,39.2,93,29.59,1.2,NNW,6.9,-,N/A,,Overcast,330,2012-12-18 02:45:00
9:56 PM,41.0,39.9,96,29.61,1.2,NNW,6.9,-,N/A,,Overcast,330,2012-12-18 02:56:00
10:03 PM,41.0,39.2,93,29.60,1.5,NW,6.9,-,0.00,Rain,Light Rain,320,2012-12-18 03:03:00
10:11 PM,41.0,39.2,93,29.60,1.0,NW,8.1,-,0.00,,Overcast,320,2012-12-18 03:11:00
10:38 PM,39.2,39.2,100,29.61,1.5,NW,6.9,-,0.02,Rain,Light Rain,320,2012-12-18 03:38:00
10:56 PM,39.9,38.8,96,29.63,2.0,NW,8.1,-,0.03,Rain,Light Rain,320,2012-12-18 03:56:00
11:17 PM,39.2,37.4,93,29.62,2.5,WNW,6.9,-,0.00,,Overcast,300,2012-12-18 04:17:00
11:42 PM,39.2,37.4,93,29.61,2.5,NNW,8.1,-,0.00,,Overcast,330,2012-12-18 04:42:00
11:56 PM,38.8,37.9,97,29.63,2.5,NW,8.1,-,0.00,,Overcast,320,2012-12-18 04:56:00